Temp
-18 -18 -18 -17 -17 -17 -17 -17 -17 -18 -19 -20 -21 -22 -23 -24 -24 -24 -24 -24 -24 -25 -25 -25 -25 -25 -24
-18 -18 -18 -18 -18 -17 -18 -18 -19 -21 -23 -23 -24 -25 -24 -24 -24 -24 -24 -24 -24 -25 -25 -24 -24 -24 -24
-18 -18 -18 -18 -18 -18 -20 -22 -23 -24 -25 -25 -25 -25 -24 -24 -24 -24 -25 -25 -24 -24 -24 -24 -24 -23 -23
-18 -18 -18 -19 -20 -21 -23 -24 -26 -26 -26 -25 -25 -25 -25 -24 -25 -25 -24 -24 -24 -23 -23 -23 -24 -24 -24
-18 -19 -19 -21 -22 -24 -25 -26 -27 -26 -25 -26 -25 -25 -25 -25 -24 -25 -25 -24 -24 -23 -23 -23 -24 -24 -25
-19 -20 -22 -24 -25 -26 -27 -26 -26 -28 -25 -26 -25 -25 -25 -25 -25 -25 -25 -25 -24 -24 -25 -26 -27 -27 -27
-21 -23 -25 -26 -26 -26 -26 -26 -27 -26 -25 -26 -25 -25 -25 -25 -25 -25 -25 -25 -26 -27 -27 -28 -28 -28 -28
-24 -26 -26 -26 -25 -25 -26 -26 -27 -26 -25 -24 -25 -25 -25 -25 -25 -25 -26 -27 -27 -27 -27 -27 -28 -28 -28
-26 -25 -25 -25 -25 -25 -26 -25 -26 -27 -25 -25 -25 -25 -26 -25 -25 -26 -27 -27 -27 -26 -26 -27 -27 -28 -28
-26 -26 -26 -26 -26 -26 -26 -26 -26 -27 -26 -26 -26 -25 -26 -26 -26 -26 -27 -27 -26 -27 -26 -27 -27 -27 -27
-27 -27 -27 -27 -27 -27 -27 -27 -27 -27 -26 -26 -27 -27 -26 -27 -27 -26 -26 -27 -27 -27 -27 -27 -27 -27 -27
-28 -28 -28 -28 -29 -29 -29 -29 -29 -28 -28 -27 -27 -27 -27 -27 -27 -28 -27 -27 -27 -27 -27 -27 -27 -27 -27
-28 -29 -29 -29 -29 -29 -30 -30 -30 -29 -29 -28 -27 -27 -27 -26 -26 -27 -26 -28 -27 -27 -27 -27 -27 -28 -28
-28 -29 -29 -29 -29 -29 -29 -29 -30 -30 -30 -29 -28 -27 -27 -26 -26 -26 -27 -27 -27 -27 -27 -28 -28 -28 -28
-29 -29 -29 -29 -29 -29 -29 -29 -29 -29 -30 -30 -29 -28 -27 -26 -26 -26 -27 -27 -27 -27 -27 -27 -28 -28 -28
-29 -29 -29 -30 -30 -30 -30 -29 -29 -29 -29 -29 -29 -28 -27 -26 -25 -26 -27 -27 -27 -27 -27 -27 -28 -28 -28
-29 -29 -30 -30 -30 -30 -30 -29 -29 -29 -29 -29 -28 -27 -27 -27 -25 -25 -26 -27 -26 -27 -27 -27 -27 -28 -28
Height
5553 5541 5530 5519 5509 5497 5485 5475 5463 5445 5431 5419 5408 5403 5397 5392 5389 5387 5383 5380 5378 5375 5372 5369 5367 5366 5366
5535 5523 5508 5493 5483 5469 5454 5439 5424 5412 5401 5392 5386 5383 5380 5376 5373 5370 5367 5365 5363 5361 5357 5353 5350 5348 5347
5513 5499 5485 5468 5455 5439 5422 5407 5395 5388 5382 5375 5373 5369 5366 5362 5358 5356 5354 5352 5347 5343 5339 5336 5332 5329 5327
5490 5477 5457 5440 5420 5407 5398 5384 5376 5371 5367 5362 5360 5357 5353 5349 5348 5344 5340 5336 5331 5325 5321 5318 5314 5311 5310
5463 5449 5430 5412 5395 5384 5374 5370 5365 5358 5357 5353 5349 5346 5341 5338 5335 5332 5328 5323 5317 5311 5305 5299 5295 5292 5291
5432 5414 5401 5386 5377 5368 5363 5360 5358 5345 5345 5346 5337 5335 5330 5328 5326 5321 5316 5311 5305 5298 5291 5283 5277 5274 5275
5405 5390 5381 5371 5366 5361 5354 5349 5344 5339 5335 5336 5329 5325 5320 5318 5315 5310 5305 5301 5295 5289 5281 5275 5270 5267 5265
5386 5377 5369 5363 5356 5350 5345 5341 5337 5330 5323 5325 5319 5315 5311 5308 5305 5301 5296 5292 5288 5282 5276 5269 5264 5260 5258
5375 5367 5359 5352 5345 5339 5334 5330 5327 5322 5313 5312 5307 5303 5301 5297 5295 5291 5288 5284 5279 5274 5268 5263 5257 5253 5250
5364 5356 5349 5342 5334 5327 5322 5318 5314 5314 5303 5303 5297 5290 5295 5284 5285 5282 5279 5274 5271 5265 5260 5254 5248 5244 5240
5356 5348 5340 5332 5325 5317 5310 5304 5300 5298 5292 5289 5288 5283 5280 5280 5273 5271 5271 5267 5262 5257 5251 5245 5239 5233 5230
5347 5339 5332 5324 5316 5308 5300 5294 5287 5282 5282 5277 5276 5272 5270 5270 5268 5264 5261 5258 5254 5250 5244 5238 5231 5225 5220
5341 5333 5325 5318 5310 5303 5295 5288 5281 5273 5269 5268 5265 5263 5260 5260 5260 5258 5256 5253 5245 5241 5235 5229 5223 5218 5214
5335 5327 5319 5311 5303 5296 5290 5283 5277 5270 5261 5258 5257 5255 5254 5251 5252 5252 5249 5245 5240 5233 5226 5219 5214 5209 5206
5328 5319 5311 5303 5296 5289 5283 5276 5270 5265 5260 5254 5249 5247 5247 5245 5245 5244 5243 5238 5230 5224 5218 5213 5207 5204 5199
5320 5311 5303 5296 5290 5282 5276 5270 5264 5258 5254 5250 5246 5244 5242 5239 5239 5240 5237 5230 5222 5217 5212 5208 5204 5198 5192
5314 5305 5297 5289 5282 5275 5269 5264 5259 5253 5248 5244 5242 5240 5239 5237 5236 5234 5230 5224 5218 5213 5208 5204 5200 5194 5187
Wind_Speed
78 81 85 89 92 97 103 108 113 117 113 102 90 77 66 51 48 46 48 47 46 45 43 43 45 47 51
80 84 91 97 101 107 113 117 108 96 82 73 64 48 45 40 44 46 43 40 41 42 46 48 50 51 52
86 93 99 105 109 114 106 92 81 71 59 48 45 38 40 42 42 39 37 39 45 48 48 49 52 55 55
95 100 108 112 107 94 81 72 58 45 44 42 36 39 42 41 38 36 39 43 44 46 48 49 48 49 52
104 109 106 95 84 73 63 50 41 43 37 37 37 39 40 39 36 36 40 42 44 47 50 53 52 48 49
109 99 87 74 60 48 39 36 37 38 34 33 38 38 39 37 33 38 39 39 42 47 46 43 36 34 31
90 76 58 45 38 40 41 39 36 38 38 33 38 39 39 36 34 36 35 31 31 32 31 29 26 24 25
61 46 42 44 44 42 39 35 34 37 41 34 37 37 36 35 32 32 26 24 24 25 28 31 28 26 26
47 46 46 46 46 44 41 38 35 32 41 36 37 37 33 34 30 26 22 22 25 27 28 28 28 30 32
49 47 46 45 47 47 46 44 41 36 41 35 35 39 24 34 28 23 22 25 26 29 32 33 28 28 27
45 44 43 44 46 47 47 47 44 40 40 36 31 33 31 22 29 26 23 26 27 30 32 32 32 32 30
40 40 40 42 43 43 43 43 43 43 35 34 29 30 27 25 22 27 27 27 29 31 30 31 28 32 30
36 38 39 39 38 36 36 36 37 39 36 29 27 25 25 23 21 24 22 25 31 35 30 31 29 29 23
36 39 39 39 38 37 35 35 33 32 35 31 27 24 19 23 18 19 22 26 30 32 25 28 24 23 27
41 43 40 37 37 37 35 34 32 30 27 27 29 26 17 19 19 19 21 27 30 25 24 20 17 21 22
41 40 38 37 35 34 33 32 31 29 26 23 22 21 19 18 13 13 17 24 25 25 22 14 16 20 25
40 39 35 34 34 34 32 31 29 29 27 22 15 13 13 15 15 17 17 21 22 18 14 15 16 19 27
Wind_Direction
303 303 303 302 302 302 301 301 300 299 297 295 293 292 290 285 282 281 281 279 278 278 277 275 273 271 268
304 304 304 303 302 301 301 300 299 297 296 294 294 291 291 286 286 286 283 283 282 283 281 277 273 270 267
306 305 304 303 302 302 301 300 298 297 295 291 291 290 293 293 290 288 285 287 284 282 281 278 278 276 271
306 305 305 304 303 302 301 300 298 294 294 293 292 292 294 293 294 295 293 291 291 289 288 287 281 273 273
306 306 306 305 304 303 300 298 295 294 290 292 293 293 292 297 300 298 297 298 296 293 292 288 284 279 272
309 309 307 305 304 301 301 296 295 296 292 294 295 294 293 295 296 298 300 299 298 299 299 298 294 285 279
310 309 310 307 305 304 306 305 299 294 291 292 292 292 294 295 296 298 298 300 305 312 319 312 304 300 291
312 315 312 310 308 307 304 302 299 296 291 293 293 290 288 293 296 296 295 300 305 312 314 315 311 303 293
314 313 311 310 309 307 307 304 301 302 294 299 294 292 291 290 295 289 292 296 305 309 315 317 310 306 295
313 313 311 309 308 307 305 304 300 298 294 295 292 292 286 290 290 281 292 298 302 305 314 311 301 302 301
313 313 313 312 310 307 306 304 302 302 297 294 290 287 287 277 284 285 293 296 306 313 313 310 303 305 298
318 318 319 319 316 313 310 308 306 304 301 293 292 287 279 277 266 273 293 298 305 311 306 305 303 314 306
322 321 320 322 322 322 318 316 314 308 306 300 293 291 280 275 263 270 286 294 301 311 307 308 296 309 298
324 324 320 318 318 320 318 315 316 313 311 307 301 299 284 283 268 259 290 305 305 311 311 308 298 303 310
321 320 318 317 316 317 320 322 318 315 312 311 307 308 300 283 273 280 293 307 317 317 320 312 305 318 318
323 322 321 318 317 317 318 321 323 322 316 309 303 306 308 298 277 288 311 323 323 322 321 310 320 320 332
329 327 323 320 319 318 316 314 320 324 321 318 306 301 298 300 302 330 344 335 336 333 321 333 327 319 336